DW8501 Madrid ES current weather conditions

sailwx.info

Wind from 079 at 1 knots gusting 7

Air temperature 15.6° C
Dewpoint 7.6° C

Last reported at 2015-Mar-27 10:50 UTC.
Time now 2015-Mar-27 11:57 UTC

Location: N 40°27' W 003°35'.
View on Google Maps.

See reports from other nearby stations

  
Tides and Currents Weather Stations Pressure Air Temp Water Temp Dewpoint Dewpoint Depression Visibility Wind Speed Wind Dir Waves Ship Positions
date/time (UTC)wind fromknots sea level pressurealtimeterstation pressurevisibilityair tempwater tempwave heightnotes
2015-Mar-27 10:50 079 1 gusting 7 15.6
2015-Mar-27 10:45 065 2 gusting 7 15.0
2015-Mar-27 10:40 073 0 gusting 6 15.6
2015-Mar-27 10:35 105 3 gusting 6 16.7
2015-Mar-27 10:30 086 3 gusting 11 15.6
2015-Mar-27 10:25 069 1 gusting 11 14.4
2015-Mar-27 10:20 070 9 gusting 11 14.4
2015-Mar-27 10:15 080 3 gusting 11 15.0
2015-Mar-27 10:10 066 8 gusting 11 14.4
2015-Mar-27 10:05 058 6 gusting 12 14.4
2015-Mar-27 10:00 063 7 gusting 12 14.4
2015-Mar-27 09:55 060 2 gusting 11 14.4
2015-Mar-27 09:50 059 4 gusting 13 14.4
2015-Mar-27 09:45 062 9 gusting 13 13.9
2015-Mar-27 09:40 057 7 gusting 10 14.4
2015-Mar-27 09:35 040 7 gusting 11 14.4
2015-Mar-27 09:30 045 6 gusting 11 13.9
2015-Mar-27 09:25 049 6 gusting 10 13.9
2015-Mar-27 09:20 038 7 gusting 10 13.9
2015-Mar-27 09:15 044 5 gusting 9 13.9
2015-Mar-27 09:10 026 5 gusting 8 13.9
2015-Mar-27 09:05 022 4 gusting 6 13.3
2015-Mar-27 09:00 052 4 gusting 9 13.3
2015-Mar-27 08:55 070 6 gusting 11 13.3
2015-Mar-27 08:50 069 8 gusting 11 13.3
2015-Mar-27 08:45 059 6 gusting 10 13.3
2015-Mar-27 08:40 064 4 gusting 8 13.3
2015-Mar-27 08:35 061 3 gusting 8 13.3
2015-Mar-27 08:30 064 4 gusting 7 13.3
2015-Mar-27 08:25 061 4 gusting 8 13.3
2015-Mar-27 08:20 036 5 gusting 8 13.3
2015-Mar-27 08:15 028 6 gusting 8 13.9
2015-Mar-27 08:10 025 1 gusting 6 13.9
2015-Mar-27 08:05 347 5 gusting 6 14.4
2015-Mar-27 08:00 343 0 gusting 4 13.9
2015-Mar-27 07:55 002 3 gusting 4 14.4
2015-Mar-27 07:50 318 2 gusting 5 13.9
2015-Mar-27 07:45 296 1 gusting 5 12.8
2015-Mar-27 07:40 301 3 gusting 5 13.3
2015-Mar-27 07:35 318 1 gusting 3 13.3
2015-Mar-27 07:30 311 0 gusting 3 13.3
2015-Mar-27 07:25 294 1 gusting 3 12.8
2015-Mar-27 07:20 310 1 gusting 3 12.8
2015-Mar-27 07:15 304 1 gusting 3 12.8
2015-Mar-27 07:10 292 1 gusting 4 12.2
2015-Mar-27 07:05 312 1 gusting 4 12.2
2015-Mar-27 07:00 323 1 gusting 4 11.7
2015-Mar-27 06:55 328 1 gusting 4 11.7
2015-Mar-27 06:50 346 1 gusting 4 10.6
2015-Mar-27 06:45 005 1 gusting 3 10.6
2015-Mar-27 06:40 021 1 gusting 1 10.0
2015-Mar-27 06:35 054 1 gusting 3 9.4
2015-Mar-27 06:30 081 0 gusting 3 9.4
2015-Mar-27 06:25 040 1 gusting 3 9.4
2015-Mar-27 06:20 317 0 gusting 3 9.4
2015-Mar-27 06:15 294 1 gusting 3 9.4
2015-Mar-27 06:10 287 1 gusting 2 8.9
2015-Mar-27 06:05 303 0 gusting 2 8.9
2015-Mar-27 06:00 303 1 gusting 2 8.9
2015-Mar-27 05:55 245 1 gusting 1 8.9
2015-Mar-27 05:50 8.9
2015-Mar-27 05:45 230 0 gusting 1 8.9
2015-Mar-27 05:40 8.9
2015-Mar-27 05:35 286 0 gusting 2 9.4
2015-Mar-27 05:30 9.4
2015-Mar-27 05:25 273 1 gusting 3 9.4
2015-Mar-27 05:20 260 3 gusting 3 8.9
2015-Mar-27 05:15 237 1 gusting 5 8.9
2015-Mar-27 05:10 242 1 gusting 5 9.4
2015-Mar-27 05:05 256 1 gusting 2 9.4
2015-Mar-27 05:00 256 0 gusting 1 9.4
2015-Mar-27 04:55 9.4
2015-Mar-27 04:50 282 0 gusting 2 9.4
2015-Mar-27 04:45 258 1 gusting 2 8.9
2015-Mar-27 04:40 208 1 gusting 1 9.4
2015-Mar-27 04:35 8.9
2015-Mar-27 04:30 9.4
2015-Mar-27 04:25 086 1 gusting 1 9.4
2015-Mar-27 04:20 265 1 gusting 2 10.0
2015-Mar-27 04:15 10.0
2015-Mar-27 04:10 256 1 gusting 3 10.0
2015-Mar-27 04:05 247 3 gusting 3 10.0
2015-Mar-27 04:00 265 1 gusting 1 10.0
2015-Mar-27 03:55 10.0
2015-Mar-27 03:50 10.0
2015-Mar-27 03:45 10.6
2015-Mar-27 03:40 003 1 gusting 2 10.6
2015-Mar-27 03:35 340 0 gusting 1 10.6
2015-Mar-27 03:30 10.6
2015-Mar-27 03:25 051 0 gusting 4 10.6
2015-Mar-27 03:20 322 3 gusting 5 11.1
2015-Mar-27 03:15 283 1 gusting 6 11.1
2015-Mar-27 03:10 274 3 gusting 6 11.1
2015-Mar-27 03:05 276 2 gusting 5 11.1
2015-Mar-27 03:00 276 2 gusting 5 11.1
2015-Mar-27 02:55 257 4 gusting 5 11.1
2015-Mar-27 02:50 229 1 gusting 3 11.1
2015-Mar-27 02:45 237 1 gusting 5 11.1
2015-Mar-27 02:40 247 3 gusting 5 11.1
2015-Mar-27 02:35 246 2 gusting 4 11.1
2015-Mar-27 02:30 246 2 gusting 6 11.1
2015-Mar-27 02:25 264 2 gusting 6 11.1
2015-Mar-27 02:20 267 4 gusting 6 11.1
2015-Mar-27 02:15 260 3 gusting 8 11.1
2015-Mar-27 02:10 259 4 gusting 8 11.7
2015-Mar-27 02:05 265 3 gusting 6 11.7
2015-Mar-27 02:00 280 3 gusting 5 11.7
2015-Mar-27 01:55 284 2 gusting 6 11.7
2015-Mar-27 01:50 283 3 gusting 6 12.2
2015-Mar-27 01:45 278 2 gusting 4 12.2
2015-Mar-27 01:40 276 3 gusting 4 12.2
2015-Mar-27 01:35 288 1 gusting 3 12.2
2015-Mar-27 01:30 296 1 gusting 3 12.2
2015-Mar-27 01:25 276 1 gusting 2 12.2
2015-Mar-27 01:20 250 1 gusting 2 12.2
2015-Mar-27 01:15 243 1 gusting 4 12.2
2015-Mar-27 01:10 245 1 gusting 4 12.2
2015-Mar-27 01:05 230 3 gusting 6 12.2
2015-Mar-27 01:00 198 3 gusting 6 12.2
2015-Mar-27 00:55 177 3 gusting 6 12.2
2015-Mar-27 00:50 192 1 gusting 5 12.2
2015-Mar-27 00:45 240 2 gusting 3 12.2
2015-Mar-27 00:40 264 3 gusting 3 12.8
2015-Mar-27 00:35 270 1 gusting 2 12.8
2015-Mar-27 00:30 281 1 gusting 1 12.8
2015-Mar-27 00:25 289 0 gusting 2 12.8
2015-Mar-27 00:20 320 0 gusting 3 12.8
2015-Mar-27 00:15 347 1 gusting 3 12.8
2015-Mar-27 00:10 356 0 gusting 4 12.8
2015-Mar-27 00:05 358 1 gusting 4 12.8
2015-Mar-27 00:00 319 1 gusting 4 12.8
2015-Mar-26 23:55 285 1 gusting 4 12.8
2015-Mar-26 23:50 283 1 gusting 5 12.8
2015-Mar-26 23:45 273 3 gusting 5 12.8
2015-Mar-26 23:40 252 3 gusting 5 12.8
2015-Mar-26 23:35 252 3 gusting 6 12.8
2015-Mar-26 23:30 241 3 gusting 6 12.8
2015-Mar-26 23:25 238 3 gusting 6 12.8
2015-Mar-26 23:20 256 3 gusting 6 12.8
2015-Mar-26 23:15 285 3 gusting 6 12.8
2015-Mar-26 23:10 308 3 gusting 6 12.8
2015-Mar-26 23:05 326 3 gusting 6 13.3
2015-Mar-26 23:00 330 3 gusting 9 13.3
2015-Mar-26 22:55 325 1 gusting 9 13.3
2015-Mar-26 22:50 311 5 gusting 11 13.3
2015-Mar-26 22:45 313 3 gusting 11 13.3
2015-Mar-26 22:40 319 7 gusting 10 13.3
2015-Mar-26 22:35 306 6 gusting 14 13.3
2015-Mar-26 22:30 309 6 gusting 14 13.3
2015-Mar-26 22:25 298 4 gusting 9 13.3
2015-Mar-26 22:20 281 6 gusting 9 13.3
2015-Mar-26 22:15 284 6 gusting 9 13.3
2015-Mar-26 22:10 277 3 gusting 6 13.3
2015-Mar-26 22:05 274 2 gusting 6 13.3
2015-Mar-26 22:00 271 4 gusting 10 13.3
2015-Mar-26 21:55 270 3 gusting 14 13.3
2015-Mar-26 21:50 284 9 gusting 14 13.3
2015-Mar-26 21:45 289 9 gusting 14 13.3
2015-Mar-26 21:40 267 7 gusting 14 13.3
2015-Mar-26 21:35 260 5 gusting 14 13.3
2015-Mar-26 21:25 277 6 gusting 9 13.9
2015-Mar-26 21:20 294 6 gusting 8 13.9
2015-Mar-26 21:15 309 2 gusting 7 13.9
2015-Mar-26 21:10 330 2 gusting 6 13.9
2015-Mar-26 21:05 332 3 gusting 8 13.9
2015-Mar-26 20:55 274 2 gusting 13 13.9
2015-Mar-26 20:50 300 3 gusting 9 13.9
2015-Mar-26 20:45 301 2 gusting 10 13.9
2015-Mar-26 20:40 303 2 gusting 10 13.9
2015-Mar-26 20:35 288 8 gusting 10 13.9
2015-Mar-26 20:30 275 6 gusting 12 13.9
2015-Mar-26 20:25 290 6 gusting 13 13.9
2015-Mar-26 20:20 307 6 gusting 15 13.9
2015-Mar-26 20:15 309 10 gusting 15 13.9
2015-Mar-26 20:10 305 6 gusting 13 13.9
2015-Mar-26 20:05 324 6 gusting 17 13.9
2015-Mar-26 20:00 322 9 gusting 18 13.9
2015-Mar-26 19:55 320 12 gusting 18 13.9
2015-Mar-26 19:50 320 11 gusting 17 13.9
2015-Mar-26 19:45 299 6 gusting 13 13.9
2015-Mar-26 19:40 302 8 gusting 16 13.9
2015-Mar-26 19:35 307 5 gusting 16 13.9
2015-Mar-26 19:30 313 7 gusting 14 13.9
2015-Mar-26 19:25 316 8 gusting 14 13.9
2015-Mar-26 19:20 302 7 gusting 13 13.9
2015-Mar-26 19:15 287 7 gusting 13 13.9
2015-Mar-26 19:10 287 5 gusting 9 13.9
2015-Mar-26 19:05 299 6 gusting 9 13.9
2015-Mar-26 19:00 299 6 gusting 13 13.9
2015-Mar-26 18:55 290 6 gusting 13 13.9
2015-Mar-26 18:50 300 5 gusting 13 13.9
2015-Mar-26 18:45 303 6 gusting 11 13.9
2015-Mar-26 18:40 306 5 gusting 18 13.9
2015-Mar-26 18:35 308 6 gusting 18 13.9
2015-Mar-26 18:30 302 4 gusting 13 13.9
2015-Mar-26 18:25 309 7 gusting 13 13.9
2015-Mar-26 18:20 305 7 gusting 13 13.9
2015-Mar-26 18:15 271 9 gusting 13 13.9
2015-Mar-26 18:10 267 4 gusting 13 13.9
2015-Mar-26 18:05 289 6 gusting 13 13.9
2015-Mar-26 18:00 305 6 gusting 16 13.9
2015-Mar-26 17:55 296 6 gusting 21 13.9
2015-Mar-26 17:50 300 11 gusting 21 14.4
2015-Mar-26 17:45 311 6 gusting 14 14.4
2015-Mar-26 17:40 302 6 gusting 13 14.4
2015-Mar-26 17:35 306 8 gusting 13 14.4
2015-Mar-26 17:30 298 10 gusting 13 13.9
2015-Mar-26 17:25 303 6 gusting 17 13.9
2015-Mar-26 17:20 309 7 gusting 17 13.9
2015-Mar-26 17:15 301 11 gusting 18 13.9
2015-Mar-26 17:10 316 9 gusting 18 14.4
2015-Mar-26 17:00 307 3 gusting 15 14.4
2015-Mar-26 16:55 311 6 gusting 15 14.4
2015-Mar-26 16:50 337 3 gusting 14 14.4
2015-Mar-26 16:45 324 9 gusting 15 14.4
2015-Mar-26 16:40 310 7 gusting 15 14.4
2015-Mar-26 16:35 324 5 gusting 13 14.4
2015-Mar-26 16:30 316 6 gusting 13 13.9
2015-Mar-26 16:25 307 6 gusting 14 13.9
2015-Mar-26 16:20 320 4 gusting 19 13.9
2015-Mar-26 16:15 311 7 gusting 19 13.9
2015-Mar-26 16:10 303 11 gusting 19 13.9
2015-Mar-26 16:05 319 8 gusting 12 14.4
2015-Mar-26 16:00 320 1 gusting 11 14.4
2015-Mar-26 15:55 313 4 gusting 17 13.9
2015-Mar-26 15:50 305 7 gusting 20 13.9
2015-Mar-26 15:45 305 12 gusting 20 14.4
2015-Mar-26 15:40 310 13 gusting 17 15.0
2015-Mar-26 15:35 320 6 gusting 16 14.4
2015-Mar-26 15:30 319 6 gusting 19 14.4
2015-Mar-26 15:25 314 10 gusting 19 13.9
2015-Mar-26 15:20 307 13 gusting 19 13.9
2015-Mar-26 15:15 302 13 gusting 19 14.4
2015-Mar-26 15:10 350 9 gusting 18 14.4
2015-Mar-26 15:05 016 3 gusting 13 15.0
2015-Mar-26 15:00 338 3 gusting 17 15.0
2015-Mar-26 14:55 320 10 gusting 17 14.4
2015-Mar-26 14:50 289 3 gusting 15 14.4
2015-Mar-26 14:45 294 4 gusting 18 13.9
2015-Mar-26 14:40 299 11 gusting 18 13.9
2015-Mar-26 14:35 289 13 gusting 15 13.9
2015-Mar-26 14:30 290 7 gusting 14 13.3
2015-Mar-26 14:25 310 7 gusting 13 13.9
2015-Mar-26 14:20 318 6 gusting 15 13.9
2015-Mar-26 14:15 301 6 gusting 15 13.3
2015-Mar-26 14:10 297 8 gusting 14 13.3
2015-Mar-26 14:05 300 12 gusting 14 13.3
2015-Mar-26 14:00 301 6 gusting 16 13.3
2015-Mar-26 13:55 294 6 gusting 16 13.3
2015-Mar-26 13:50 294 13 gusting 16 13.3
2015-Mar-26 13:45 310 7 gusting 13 13.3
2015-Mar-26 13:40 323 3 gusting 13 13.9
2015-Mar-26 13:35 314 6 gusting 14 13.9
2015-Mar-26 13:30 318 9 gusting 14 13.9
2015-Mar-26 13:25 328 9 gusting 13 13.9
2015-Mar-26 13:20 300 5 gusting 15 13.3
2015-Mar-26 13:15 296 9 gusting 15 12.8
2015-Mar-26 13:10 300 6 gusting 11 12.8
2015-Mar-26 13:05 300 6 gusting 12 12.2
2015-Mar-26 13:00 311 6 gusting 12 12.2
2015-Mar-26 12:55 306 5 gusting 12 12.2
2015-Mar-26 12:50 298 6 gusting 19 11.7
2015-Mar-26 12:45 294 6 gusting 19 11.7
2015-Mar-26 12:40 303 10 gusting 13 11.7
2015-Mar-26 12:35 326 6 gusting 13 11.7
2015-Mar-26 12:30 312 8 gusting 15 11.1
2015-Mar-26 12:25 291 8 gusting 15 11.1
2015-Mar-26 12:20 288 9 gusting 15 11.7
2015-Mar-26 12:15 297 9 gusting 15 11.7
2015-Mar-26 12:10 296 10 gusting 15 11.7
2015-Mar-26 12:05 303 6 gusting 13 12.2
2015-Mar-26 12:00 298 6 gusting 13 11.7
2015-Mar-26 11:55 277 9 gusting 13 11.1
2015-Mar-26 11:50 270 8 gusting 14 10.6
2015-Mar-26 11:45 289 9 gusting 14 10.6
2015-Mar-26 11:40 305 3 gusting 12 11.1
2015-Mar-26 11:35 312 3 gusting 12 11.1
2015-Mar-26 11:30 311 4 gusting 11 12.2
2015-Mar-26 11:25 273 4 gusting 11 11.1
2015-Mar-26 11:20 271 7 gusting 10 11.1
2015-Mar-26 11:15 274 7 gusting 9 11.1
2015-Mar-26 11:10 264 6 gusting 9 11.1
2015-Mar-26 11:05 255 2 gusting 3 12.2
2015-Mar-26 11:00 273 2 gusting 5 12.2
2015-Mar-26 10:55 259 1 gusting 6 11.1
2015-Mar-26 10:50 154 2 gusting 6 11.1
2015-Mar-26 10:45 117 1 gusting 6 11.1
2015-Mar-26 10:40 248 2 gusting 4 11.1
2015-Mar-26 10:35 262 1 gusting 5 10.0
2015-Mar-26 10:30 254 2 gusting 5 10.6
2015-Mar-26 10:25 251 1 gusting 6 10.0
2015-Mar-26 10:20 313 3 gusting 6 10.6
2015-Mar-26 10:15 10.6
2015-Mar-26 10:10 082 3 gusting 6 10.6
2015-Mar-26 10:05 082 3 gusting 6 10.0
2015-Mar-26 10:00 039 4 gusting 6 9.4
2015-Mar-26 09:55 357 6 gusting 6 10.6
2015-Mar-26 09:50 026 3 gusting 4 12.2
2015-Mar-26 09:45 223 1 gusting 3 11.1
2015-Mar-26 09:40 027 1 gusting 6 10.0
2015-Mar-26 09:35 049 0 gusting 6 9.4
2015-Mar-26 09:30 102 3 gusting 6 9.4
2015-Mar-26 09:25 125 1 gusting 4 8.9
2015-Mar-26 09:20 118 1 gusting 4 8.3
2015-Mar-26 09:15 102 1 gusting 6 7.8
2015-Mar-26 09:10 069 2 gusting 6 7.2
2015-Mar-26 09:05 055 1 gusting 5 7.8
2015-Mar-26 09:00 074 1 gusting 5 7.8
2015-Mar-26 08:55 105 3 gusting 3 7.8
2015-Mar-26 08:50 118 1 gusting 3 7.2
2015-Mar-26 08:45 107 2 gusting 4 6.7
2015-Mar-26 08:40 097 1 gusting 5 6.7
2015-Mar-26 08:35 095 3 gusting 5 6.7
2015-Mar-26 08:30 085 1 gusting 5 7.2
2015-Mar-26 08:25 041 1 gusting 1 7.2
2015-Mar-26 08:20 135 0 gusting 1 7.2
2015-Mar-26 08:15 075 0 gusting 1 6.7
2015-Mar-26 08:10 6.7
2015-Mar-26 08:05 095 0 gusting 1 6.7
2015-Mar-26 08:00 6.1
2015-Mar-26 07:55 6.1
2015-Mar-26 07:50 6.1
2015-Mar-26 07:45 6.1
2015-Mar-26 07:40 133 0 gusting 2 6.1
2015-Mar-26 07:35 119 1 gusting 2 5.6
2015-Mar-26 07:30 5.0
2015-Mar-26 07:25 124 1 gusting 2 5.0
2015-Mar-26 07:20 141 1 gusting 2 5.6
2015-Mar-26 07:15 158 0 gusting 2 5.0
2015-Mar-26 07:10 4.4
2015-Mar-26 07:05 118 0 gusting 2 3.9
2015-Mar-26 07:00 122 1 gusting 2 3.9
2015-Mar-26 06:55 134 1 gusting 2 3.9
2015-Mar-26 06:50 032 1 gusting 1 3.9
2015-Mar-26 06:45 3.9
2015-Mar-26 06:40 3.9
2015-Mar-26 06:35 123 0 gusting 1 3.9
2015-Mar-26 06:30 115 0 gusting 3 3.9
2015-Mar-26 06:25 102 0 gusting 3 3.3
2015-Mar-26 06:20 090 2 gusting 7 3.3
2015-Mar-26 06:15 090 3 gusting 7 3.9
2015-Mar-26 06:10 094 2 gusting 3 3.9
2015-Mar-26 06:05 3.9
2015-Mar-26 06:00 3.9
2015-Mar-26 05:55 276 1 gusting 3 3.9
2015-Mar-26 05:50 279 0 gusting 6 3.9
2015-Mar-26 05:45 282 1 gusting 6 3.9
2015-Mar-26 05:40 272 3 gusting 6 3.9
2015-Mar-26 05:35 268 2 gusting 5 3.9
2015-Mar-26 05:30 259 3 gusting 5 3.9
2015-Mar-26 05:25 237 3 gusting 5 3.9
2015-Mar-26 05:20 235 3 gusting 6 3.9
2015-Mar-26 05:15 253 1 gusting 6 3.9
2015-Mar-26 05:10 268 3 gusting 6 3.9
2015-Mar-26 05:05 269 3 gusting 5 3.3
2015-Mar-26 05:00 273 3 gusting 5 3.3
2015-Mar-26 04:55 269 3 gusting 5 3.3
2015-Mar-26 04:50 256 3 gusting 6 3.3
2015-Mar-26 04:45 260 3 gusting 6 3.3
2015-Mar-26 04:40 271 3 gusting 6 3.3
2015-Mar-26 04:35 272 3 gusting 6 3.3
2015-Mar-26 04:30 239 2 gusting 6 3.3
2015-Mar-26 04:25 228 3 gusting 6 3.3
2015-Mar-26 04:20 229 3 gusting 5 3.3
2015-Mar-26 04:15 213 2 gusting 3 3.3
2015-Mar-26 04:10 196 2 gusting 3 3.9
2015-Mar-26 04:05 194 2 gusting 5 3.9
2015-Mar-26 04:00 203 3 gusting 5 3.3
2015-Mar-26 03:55 214 3 gusting 5 3.3
2015-Mar-26 03:50 220 3 gusting 4 3.9
2015-Mar-26 03:45 223 3 gusting 4 3.9
2015-Mar-26 03:40 3.9
2015-Mar-26 03:35 3.9
2015-Mar-26 03:30 3.9
2015-Mar-26 03:25 4.4
2015-Mar-26 03:20 009 1 gusting 3 4.4
2015-Mar-26 03:15 275 1 gusting 3 4.4
2015-Mar-26 03:10 4.4
2015-Mar-26 03:05 248 2 gusting 5 4.4
2015-Mar-26 03:00 272 2 gusting 6 4.4
2015-Mar-26 02:55 260 4 gusting 6 4.4
2015-Mar-26 02:50 248 3 gusting 6 4.4
2015-Mar-26 02:45 291 3 gusting 8 4.4
2015-Mar-26 02:40 003 1 gusting 10 5.0
2015-Mar-26 02:35 039 6 gusting 12 5.0
2015-Mar-26 02:30 050 3 gusting 13 5.0
2015-Mar-26 02:25 048 9 gusting 13 5.0
2015-Mar-26 02:20 041 6 gusting 12 4.4
2015-Mar-26 02:15 042 6 gusting 13 4.4
2015-Mar-26 02:10 048 6 gusting 15 4.4
2015-Mar-26 02:05 048 10 gusting 15 5.0
2015-Mar-26 02:00 050 9 gusting 17 4.4
2015-Mar-26 01:55 050 10 gusting 19 4.4
2015-Mar-26 01:50 046 13 gusting 19 4.4
2015-Mar-26 01:45 045 14 gusting 19 4.4
2015-Mar-26 01:40 039 13 gusting 18 4.4
2015-Mar-26 01:35 041 12 gusting 20 4.4
2015-Mar-26 01:30 044 14 gusting 20 5.0
2015-Mar-26 01:25 043 12 gusting 15 4.4
2015-Mar-26 01:20 045 11 gusting 19 4.4
2015-Mar-26 01:15 048 13 gusting 19 4.4
2015-Mar-26 01:10 048 13 gusting 18 4.4
2015-Mar-26 01:05 040 13 gusting 20 4.4
2015-Mar-26 01:00 039 13 gusting 20 4.4
2015-Mar-26 00:55 042 12 gusting 16 4.4
2015-Mar-26 00:50 044 10 gusting 16 4.4
2015-Mar-26 00:45 044 13 gusting 15 4.4
2015-Mar-26 00:40 034 9 gusting 19 4.4
2015-Mar-26 00:35 034 13 gusting 19 4.4
2015-Mar-26 00:30 038 18 gusting 19 4.4
2015-Mar-26 00:25 036 13 gusting 19 4.4
2015-Mar-26 00:20 044 10 gusting 19 4.4
2015-Mar-26 00:15 045 13 gusting 19 4.4
2015-Mar-26 00:10 039 9 gusting 20 4.4
2015-Mar-26 00:05 043 9 gusting 21 4.4
2015-Mar-26 00:00 051 14 gusting 21 4.4
2015-Mar-25 23:55 048 14 gusting 19 4.4
2015-Mar-25 23:50 049 9 gusting 18 4.4
2015-Mar-25 23:45 060 8 gusting 13 4.4
2015-Mar-25 23:40 053 9 gusting 12 4.4
2015-Mar-25 23:35 058 8 gusting 12 4.4
2015-Mar-25 23:30 069 7 gusting 13 4.4
2015-Mar-25 23:25 065 7 gusting 14 4.4
2015-Mar-25 23:20 052 8 gusting 19 4.4
2015-Mar-25 23:15 068 8 gusting 19 4.4
2015-Mar-25 23:10 090 13 gusting 16 4.4
2015-Mar-25 23:05 074 12 gusting 14 4.4
2015-Mar-25 23:00 059 12 gusting 15 4.4
2015-Mar-25 22:55 061 12 gusting 17 4.4
2015-Mar-25 22:50 053 13 gusting 19 4.4
2015-Mar-25 22:45 050 13 gusting 19 4.4
2015-Mar-25 22:40 053 13 gusting 25 4.4
2015-Mar-25 22:35 051 13 gusting 25 5.0
2015-Mar-25 22:30 045 16 gusting 24 4.4
2015-Mar-25 22:25 049 13 gusting 32 5.0
2015-Mar-25 22:20 053 18 gusting 32 5.0
2015-Mar-25 22:15 043 23 gusting 33 5.0
2015-Mar-25 22:10 036 20 gusting 33 5.0
2015-Mar-25 22:05 039 23 gusting 31 5.0
2015-Mar-25 22:00 037 26 gusting 31 5.0
2015-Mar-25 21:55 039 18 gusting 29 5.0
2015-Mar-25 21:50 044 21 gusting 29 5.0
2015-Mar-25 21:45 045 20 gusting 29 5.0
2015-Mar-25 21:40 047 24 gusting 26 5.0
2015-Mar-25 21:35 043 13 gusting 29 5.0
2015-Mar-25 21:30 035 15 gusting 29 5.0
2015-Mar-25 21:25 036 18 gusting 27 5.0
2015-Mar-25 21:20 049 18 gusting 27 5.0
2015-Mar-25 21:15 049 14 gusting 27 5.0
2015-Mar-25 21:10 046 19 gusting 26 5.0
2015-Mar-25 21:05 051 16 gusting 26 5.0
2015-Mar-25 21:00 066 16 gusting 26 5.0
2015-Mar-25 20:55 067 16 gusting 26 5.0
2015-Mar-25 20:50 064 18 gusting 22 5.0
2015-Mar-25 20:45 069 11 gusting 23 5.6
2015-Mar-25 20:40 058 18 gusting 23 5.6
2015-Mar-25 20:35 046 15 gusting 23 5.6
2015-Mar-25 20:30 048 17 gusting 21 5.6
2015-Mar-25 20:25 054 15 gusting 26 5.6
2015-Mar-25 20:20 059 14 gusting 28 5.6
2015-Mar-25 20:15 047 16 gusting 28 5.6
2015-Mar-25 20:10 043 20 gusting 27 5.6
2015-Mar-25 20:05 056 13 gusting 26 5.6
2015-Mar-25 20:00 046 19 gusting 26 5.6
2015-Mar-25 19:55 034 15 gusting 25 5.6
2015-Mar-25 19:50 038 15 gusting 25 5.6
2015-Mar-25 19:45 049 12 gusting 23 5.6
2015-Mar-25 19:40 054 13 gusting 20 5.6
2015-Mar-25 19:35 049 13 gusting 19 5.6
2015-Mar-25 19:30 052 13 gusting 18 5.6
2015-Mar-25 19:25 060 13 gusting 17 5.6
2015-Mar-25 19:20 051 12 gusting 17 5.6
2015-Mar-25 19:15 034 13 gusting 17 6.1
2015-Mar-25 19:10 011 13 gusting 15 6.1
2015-Mar-25 19:05 019 11 gusting 19 6.1
2015-Mar-25 19:00 041 11 gusting 22 6.1
2015-Mar-25 18:55 034 13 gusting 26 6.1
2015-Mar-25 18:50 038 18 gusting 26 6.7
2015-Mar-25 18:45 043 19 gusting 26 6.7
2015-Mar-25 18:40 041 18 gusting 26 6.7
2015-Mar-25 18:35 042 18 gusting 27 6.7
2015-Mar-25 18:30 042 21 gusting 27 6.7
2015-Mar-25 18:25 034 15 gusting 26 6.7
2015-Mar-25 18:20 023 19 gusting 26 6.7
2015-Mar-25 18:15 031 17 gusting 27 6.7
2015-Mar-25 18:10 040 19 gusting 29 7.2
2015-Mar-25 18:05 043 20 gusting 29 7.2
2015-Mar-25 18:00 045 14 gusting 27 7.2
2015-Mar-25 17:55 038 19 gusting 27 7.2
2015-Mar-25 17:50 041 17 gusting 26 7.2
2015-Mar-25 17:45 047 22 gusting 26 7.2
2015-Mar-25 17:40 039 13 gusting 26 7.8
2015-Mar-25 17:35 037 19 gusting 26 7.8
2015-Mar-25 17:30 036 14 gusting 28 7.8
2015-Mar-25 17:25 036 18 gusting 28 7.8
2015-Mar-25 17:20 037 20 gusting 27 7.2
2015-Mar-25 17:15 049 19 gusting 31 7.2
2015-Mar-25 17:10 022 18 gusting 31 7.2
2015-Mar-25 17:05 017 25 gusting 31 7.2
2015-Mar-25 17:00 042 25 gusting 36 7.2
2015-Mar-25 16:55 047 17 gusting 36 7.2
2015-Mar-25 16:50 039 22 gusting 30 7.2
2015-Mar-25 16:45 029 19 gusting 34 7.2
2015-Mar-25 16:40 039 21 gusting 34 7.8
2015-Mar-25 16:35 046 24 gusting 33 7.8
2015-Mar-25 16:30 043 19 gusting 34 8.3
2015-Mar-25 16:25 046 19 gusting 41 8.3
2015-Mar-25 16:20 050 28 gusting 41 8.3
2015-Mar-25 16:15 048 19 gusting 33 8.3
2015-Mar-25 16:10 043 21 gusting 33 8.3
2015-Mar-25 16:05 048 22 gusting 39 8.3
2015-Mar-25 16:00 048 26 gusting 39 7.8
2015-Mar-25 15:55 053 19 gusting 34 7.8
2015-Mar-25 15:50 062 20 gusting 26 7.8
2015-Mar-25 15:45 053 18 gusting 28 7.8
2015-Mar-25 15:40 040 18 gusting 36 7.2
2015-Mar-25 15:35 041 21 gusting 38 6.7
2015-Mar-25 15:30 046 28 gusting 38 7.8
2015-Mar-25 15:25 038 22 gusting 33 7.8
2015-Mar-25 15:20 039 24 gusting 34 7.8
2015-Mar-25 15:15 042 28 gusting 34 8.3
2015-Mar-25 15:10 043 25 gusting 29 7.8
2015-Mar-25 15:05 060 18 gusting 29 7.8
2015-Mar-25 15:00 077 18 gusting 33 7.8
2015-Mar-25 14:55 056 19 gusting 33 7.2
2015-Mar-25 14:50 044 21 gusting 34 7.2
2015-Mar-25 14:45 049 24 gusting 36 7.2
2015-Mar-25 14:40 051 19 gusting 38 7.2
2015-Mar-25 14:35 052 25 gusting 38 7.2
2015-Mar-25 14:30 048 19 gusting 35 7.8
2015-Mar-25 14:25 036 23 gusting 35 7.8
2015-Mar-25 14:20 029 24 gusting 34 7.2
2015-Mar-25 14:15 034 20 gusting 30 7.8
2015-Mar-25 14:10 040 24 gusting 39 7.2
2015-Mar-25 14:05 045 26 gusting 39 7.2
2015-Mar-25 14:00 036 34 gusting 39 7.8
2015-Mar-25 13:55 028 30 gusting 37 7.8
2015-Mar-25 13:50 032 19 gusting 30 7.8
2015-Mar-25 13:45 041 17 gusting 32 7.8
2015-Mar-25 13:40 043 14 gusting 33 7.8
2015-Mar-25 13:35 037 23 gusting 34 7.8
2015-Mar-25 13:30 046 26 gusting 34 7.8
2015-Mar-25 13:25 046 25 gusting 37 7.8
2015-Mar-25 13:20 028 19 gusting 37 7.8
2015-Mar-25 13:15 031 19 gusting 33 7.8
2015-Mar-25 13:10 037 25 gusting 33 7.8
2015-Mar-25 13:05 047 18 gusting 26 7.2
2015-Mar-25 13:00 049 18 gusting 33 7.2
2015-Mar-25 12:55 057 20 gusting 35 7.8
2015-Mar-25 12:50 052 19 gusting 36 7.2
2015-Mar-25 12:45 036 25 gusting 36 7.2
2015-Mar-25 12:40 024 29 gusting 36 7.8
2015-Mar-25 12:35 032 25 gusting 35 7.2
2015-Mar-25 12:30 045 19 gusting 37 7.2
2015-Mar-25 12:25 042 25 gusting 38 7.2
2015-Mar-25 12:20 042 33 gusting 38 7.2
2015-Mar-25 12:15 048 19 gusting 30 7.2
2015-Mar-25 12:10 043 22 gusting 30 7.2
2015-Mar-25 12:05 039 24 gusting 30 7.2
2015-Mar-25 12:00 031 14 gusting 37 7.2
2015-Mar-25 11:55 033 24 gusting 37 6.7
2015-Mar-25 11:50 044 21 gusting 35 6.7
2015-Mar-25 11:45 044 24 gusting 35 6.7
2015-Mar-25 11:40 053 31 gusting 37 6.7
2015-Mar-25 11:35 058 24 gusting 37 6.7
2015-Mar-25 11:30 047 23 gusting 36 6.7
2015-Mar-25 11:25 044 30 gusting 39 6.7
2015-Mar-25 11:20 046 19 gusting 39 6.1
2015-Mar-25 11:15 050 23 gusting 33 6.1
2015-Mar-25 11:10 049 22 gusting 33 6.1
2015-Mar-25 11:05 031 24 gusting 31 6.7
2015-Mar-25 11:00 031 24 gusting 31 6.7